Mona Airport

Jump to: basic info | weather | comments

Related pages: nearby airports | nearby navaids

Basic information (top)

Location: lon 18.075300, lat -67.931000, elev 1 ft / 0 m msl
Status: small_airport

Weather (top)

Current conditions for Punta Cana International Airport 38nm (71km) NW (rec'd 2014/10/23 04:00Z):

MDPC 230400Z 00000KT 9999 FEW016 24/23 Q1014

Airport forecast for Punta Cana International Airport 38nm (71km) NW (rec'd 2014/10/21 18:05Z):

TAF TAF MDPC 211600Z 2118/2218 13008KT 9999 FEW025 SCT300 
      BECMG 2202/2204 07005KT 

Latest comments (top)

No comments yet for Mona Airport

More... (top)

See also NOTAMs and nearby airports and navaids, or visit the Mona Airport page at the main OurAirports website..